TimeEST,TemperatureF,Dew PointF,Humidity,Sea Level PressureIn,VisibilityMPH,Wind Direction,Wind SpeedMPH,Gust SpeedMPH,PrecipitationIn,Events,Conditions,WindDirDegrees,DateUTC
12:15 AM,46.4,46.4,100,30.27,5.0,Calm,Calm,-,N/A,,Overcast,0,2012-11-16 05:15:00
12:35 AM,48.2,48.2,100,30.27,5.0,Calm,Calm,-,N/A,,Overcast,0,2012-11-16 05:35:00
12:55 AM,46.4,46.4,100,30.27,5.0,Calm,Calm,-,N/A,,Overcast,0,2012-11-16 05:55:00
1:15 AM,46.4,46.4,100,30.26,5.0,NNE,3.5,-,N/A,,Overcast,20,2012-11-16 06:15:00
1:35 AM,46.4,46.4,100,30.27,5.0,Calm,Calm,-,N/A,,Overcast,0,2012-11-16 06:35:00
1:55 AM,46.4,46.4,100,30.27,7.0,NNE,4.6,-,N/A,,Overcast,20,2012-11-16 06:55:00
2:15 AM,46.4,46.4,100,30.27,7.0,NNE,3.5,-,N/A,,Overcast,30,2012-11-16 07:15:00
2:35 AM,46.4,46.4,100,30.27,7.0,NNE,5.8,-,N/A,,Overcast,30,2012-11-16 07:35:00
2:55 AM,46.4,46.4,100,30.27,7.0,NNE,3.5,-,N/A,,Overcast,30,2012-11-16 07:55:00
3:15 AM,46.4,46.4,100,30.27,5.0,Calm,Calm,-,N/A,,Mostly Cloudy,0,2012-11-16 08:15:00
3:35 AM,46.4,46.4,100,30.27,5.0,NNE,4.6,-,N/A,,Mostly Cloudy,20,2012-11-16 08:35:00
3:55 AM,44.6,44.6,100,30.26,7.0,NNE,4.6,-,N/A,,Scattered Clouds,30,2012-11-16 08:55:00
4:15 AM,44.6,44.6,100,30.26,7.0,NNE,5.8,-,N/A,,Clear,30,2012-11-16 09:15:00
4:35 AM,44.6,44.6,100,30.26,10.0,NE,5.8,-,N/A,,Clear,40,2012-11-16 09:35:00
4:55 AM,42.8,42.8,100,30.26,7.0,NE,4.6,-,N/A,,Scattered Clouds,50,2012-11-16 09:55:00
5:15 AM,42.8,42.8,100,30.27,7.0,NE,4.6,-,N/A,,Scattered Clouds,40,2012-11-16 10:15:00
5:35 AM,42.8,42.8,100,30.27,7.0,ENE,5.8,-,N/A,,Overcast,60,2012-11-16 10:35:00
5:55 AM,42.8,42.8,100,30.27,7.0,Calm,Calm,-,N/A,,Overcast,0,2012-11-16 10:55:00
6:15 AM,42.8,42.8,100,30.27,7.0,Calm,Calm,-,N/A,,Overcast,0,2012-11-16 11:15:00
6:35 AM,42.8,42.8,100,30.27,7.0,Calm,Calm,-,N/A,,Overcast,0,2012-11-16 11:35:00
6:55 AM,42.8,42.8,100,30.28,5.0,Calm,Calm,-,N/A,,Overcast,0,2012-11-16 11:55:00
7:15 AM,42.8,42.8,100,30.28,5.0,NNE,3.5,-,N/A,,Overcast,30,2012-11-16 12:15:00
7:35 AM,44.6,44.6,100,30.30,7.0,NNE,4.6,-,N/A,,Overcast,30,2012-11-16 12:35:00
7:55 AM,44.6,44.6,100,30.31,7.0,NE,8.1,-,N/A,,Overcast,50,2012-11-16 12:55:00
8:15 AM,42.8,42.8,100,30.31,5.0,NE,6.9,-,N/A,,Overcast,50,2012-11-16 13:15:00
8:35 AM,42.8,42.8,100,30.32,4.0,ENE,4.6,-,N/A,,Overcast,70,2012-11-16 13:35:00
8:55 AM,44.6,44.6,100,30.33,3.0,Calm,Calm,-,N/A,,Overcast,0,2012-11-16 13:55:00
9:15 AM,44.6,44.6,100,30.33,3.0,NNE,3.5,-,N/A,,Overcast,20,2012-11-16 14:15:00
9:35 AM,44.6,44.6,100,30.33,4.0,NNE,4.6,-,N/A,,Overcast,30,2012-11-16 14:35:00
9:55 AM,46.4,46.4,100,30.34,7.0,NE,6.9,-,N/A,,Overcast,40,2012-11-16 14:55:00
10:15 AM,48.2,46.4,93,30.34,10.0,NNE,4.6,-,N/A,,Overcast,30,2012-11-16 15:15:00
10:35 AM,50.0,46.4,87,30.33,10.0,NE,5.8,-,N/A,,Overcast,50,2012-11-16 15:35:00
10:55 AM,51.8,46.4,82,30.33,10.0,ENE,6.9,-,N/A,,Overcast,60,2012-11-16 15:55:00
11:15 AM,53.6,44.6,72,30.33,10.0,NNE,6.9,-,N/A,,Overcast,20,2012-11-16 16:15:00
11:35 AM,53.6,44.6,72,30.32,10.0,ENE,5.8,-,N/A,,Mostly Cloudy,70,2012-11-16 16:35:00
11:55 AM,55.4,42.8,63,30.31,10.0,NE,8.1,-,N/A,,Mostly Cloudy,40,2012-11-16 16:55:00
12:15 PM,55.4,44.6,67,30.30,10.0,North,5.8,-,N/A,,Scattered Clouds,350,2012-11-16 17:15:00
12:35 PM,55.4,42.8,63,30.29,10.0,NNE,8.1,-,N/A,,Scattered Clouds,30,2012-11-16 17:35:00
12:55 PM,57.2,42.8,59,30.28,10.0,NE,6.9,-,N/A,,Clear,40,2012-11-16 17:55:00
1:15 PM,59.0,41.0,51,30.27,10.0,ENE,6.9,-,N/A,,Clear,60,2012-11-16 18:15:00
1:35 PM,59.0,41.0,51,30.27,10.0,NE,6.9,-,N/A,,Scattered Clouds,50,2012-11-16 18:35:00
1:55 PM,60.8,37.4,42,30.27,10.0,ENE,8.1,-,N/A,,Clear,60,2012-11-16 18:55:00
2:15 PM,60.8,37.4,42,30.26,10.0,NE,8.1,-,N/A,,Clear,50,2012-11-16 19:15:00
2:35 PM,60.8,35.6,39,30.25,10.0,NNE,8.1,-,N/A,,Clear,30,2012-11-16 19:35:00
2:55 PM,60.8,37.4,42,30.25,10.0,NNE,3.5,-,N/A,,Clear,20,2012-11-16 19:55:00
3:15 PM,62.6,35.6,37,30.25,10.0,ENE,10.4,-,N/A,,Clear,70,2012-11-16 20:15:00
3:35 PM,62.6,35.6,37,30.24,7.0,East,8.1,-,N/A,,Clear,90,2012-11-16 20:35:00
3:55 PM,60.8,35.6,39,30.24,10.0,ENE,5.8,-,N/A,,Clear,60,2012-11-16 20:55:00
4:15 PM,60.8,35.6,39,30.24,10.0,ENE,9.2,-,N/A,,Clear,60,2012-11-16 21:15:00
4:35 PM,60.8,35.6,39,30.24,10.0,ENE,6.9,-,N/A,,Clear,70,2012-11-16 21:35:00
4:55 PM,59.0,35.6,42,30.25,10.0,ENE,5.8,-,N/A,,Clear,60,2012-11-16 21:55:00
5:15 PM,57.2,37.4,48,30.26,7.0,ENE,4.6,-,N/A,,Clear,60,2012-11-16 22:15:00
5:35 PM,55.4,37.4,51,30.26,1.8,ENE,3.5,-,N/A,,Haze,60,2012-11-16 22:35:00
5:55 PM,51.8,39.2,62,30.26,0.8,Calm,Calm,-,N/A,,Haze,0,2012-11-16 22:55:00
6:15 PM,48.2,41.0,76,30.27,10.0,Calm,Calm,-,N/A,,Clear,0,2012-11-16 23:15:00
6:35 PM,46.4,41.0,81,30.28,10.0,Calm,Calm,-,N/A,,Clear,0,2012-11-16 23:35:00
6:55 PM,46.4,44.6,93,30.29,10.0,Calm,Calm,-,N/A,,Clear,0,2012-11-16 23:55:00
7:15 PM,44.6,44.6,100,30.29,10.0,Calm,Calm,-,N/A,,Clear,0,2012-11-17 00:15:00
7:35 PM,44.6,44.6,100,30.30,10.0,Calm,Calm,-,N/A,,Clear,0,2012-11-17 00:35:00
7:55 PM,44.6,44.6,100,30.31,10.0,Calm,Calm,-,N/A,,Clear,0,2012-11-17 00:55:00
8:15 PM,42.8,42.8,100,30.31,10.0,Calm,Calm,-,N/A,,Clear,0,2012-11-17 01:15:00
8:55 PM,42.8,42.8,100,30.32,10.0,Calm,Calm,-,N/A,,Clear,0,2012-11-17 01:55:00
9:15 PM,42.8,42.8,100,30.32,10.0,Calm,Calm,-,N/A,,Clear,0,2012-11-17 02:15:00
9:35 PM,42.8,42.8,100,30.31,10.0,Calm,Calm,-,N/A,,Clear,0,2012-11-17 02:35:00
9:55 PM,41.0,41.0,100,30.32,10.0,Calm,Calm,-,N/A,,Clear,0,2012-11-17 02:55:00
10:15 PM,41.0,41.0,100,30.32,10.0,Calm,Calm,-,N/A,,Clear,0,2012-11-17 03:15:00
10:35 PM,41.0,41.0,100,30.33,10.0,Calm,Calm,-,N/A,,Clear,0,2012-11-17 03:35:00
10:55 PM,41.0,41.0,100,30.33,10.0,Calm,Calm,-,N/A,,Clear,0,2012-11-17 03:55:00
11:15 PM,41.0,41.0,100,30.33,7.0,Calm,Calm,-,N/A,,Clear,0,2012-11-17 04:15:00
11:35 PM,41.0,41.0,100,30.33,10.0,Calm,Calm,-,N/A,,Clear,0,2012-11-17 04:35:00
11:55 PM,39.2,39.2,100,30.33,10.0,Calm,Calm,-,N/A,,Clear,0,2012-11-17 04:55:00